Time,TemperatureF,DewpointF,PressureIn,WindDirection,WindDirectionDegrees,WindSpeedMPH,WindSpeedGustMPH,Humidity,HourlyPrecipIn,Conditions,Clouds,dailyrainin,SoftwareType,DateUTC
2013-06-27 00:02:00,69.2,68.0,29.82,SSE,153,0.0,-999.0,94,-99.99,,,0.12,weatherlink.com 1.10,2013-06-27 04:02:00,
2013-06-27 00:13:00,68.9,67.0,29.81,NNE,28,5.0,-999.0,94,-99.99,,,0.42,weatherlink.com 1.10,2013-06-27 04:13:00,
2013-06-27 00:29:00,68.5,67.0,29.77,ENE,78,5.0,-999.0,94,-99.99,,,0.51,weatherlink.com 1.10,2013-06-27 04:29:00,
2013-06-27 00:44:00,68.5,67.0,29.84,NNW,331,4.0,-999.0,94,-99.99,,,0.77,weatherlink.com 1.10,2013-06-27 04:44:00,
2013-06-27 01:03:00,68.3,67.0,29.82,NE,37,4.0,-999.0,94,-99.99,,,1.08,weatherlink.com 1.10,2013-06-27 05:03:00,
2013-06-27 01:14:00,67.5,66.0,29.81,ENE,64,0.0,-999.0,94,-99.99,,,1.24,weatherlink.com 1.10,2013-06-27 05:14:00,
2013-06-27 01:29:00,67.6,66.0,29.83,West,259,0.0,-999.0,94,-99.99,,,0.04,weatherlink.com 1.10,2013-06-27 05:29:00,
2013-06-27 01:44:00,67.6,66.0,29.85,West,260,5.0,-999.0,95,-99.99,,,0.09,weatherlink.com 1.10,2013-06-27 05:44:00,
2013-06-27 02:03:00,67.5,66.0,29.85,West,259,3.0,-999.0,95,-99.99,,,0.10,weatherlink.com 1.10,2013-06-27 06:03:00,
2013-06-27 02:14:00,67.5,66.0,29.84,West,281,7.0,-999.0,95,-99.99,,,0.15,weatherlink.com 1.10,2013-06-27 06:14:00,
2013-06-27 02:29:00,67.8,66.0,29.85,West,280,3.0,-999.0,95,-99.99,,,0.16,weatherlink.com 1.10,2013-06-27 06:29:00,
2013-06-27 02:44:00,67.8,66.0,29.84,West,280,0.0,-999.0,95,-99.99,,,0.18,weatherlink.com 1.10,2013-06-27 06:44:00,
2013-06-27 03:03:00,67.8,66.0,29.84,West,280,0.0,-999.0,95,-99.99,,,0.18,weatherlink.com 1.10,2013-06-27 07:03:00,
2013-06-27 03:14:00,67.9,67.0,29.82,West,280,0.0,-999.0,95,-99.99,,,0.18,weatherlink.com 1.10,2013-06-27 07:14:00,
2013-06-27 03:29:00,67.9,67.0,29.82,West,280,2.0,-999.0,95,-99.99,,,0.18,weatherlink.com 1.10,2013-06-27 07:29:00,
2013-06-27 03:44:00,67.8,66.0,29.82,West,280,0.0,-999.0,95,-99.99,,,0.18,weatherlink.com 1.10,2013-06-27 07:44:00,
2013-06-27 03:58:00,67.8,66.0,29.81,West,280,0.0,-999.0,95,-99.99,,,0.18,weatherlink.com 1.10,2013-06-27 07:58:00,
2013-06-27 04:13:00,67.8,66.0,29.81,West,280,0.0,-999.0,95,-99.99,,,0.18,weatherlink.com 1.10,2013-06-27 08:13:00,
2013-06-27 04:28:00,67.7,66.0,29.81,West,280,0.0,-999.0,95,-99.99,,,0.18,weatherlink.com 1.10,2013-06-27 08:28:00,
2013-06-27 04:43:00,67.7,66.0,29.82,West,280,0.0,-999.0,95,-99.99,,,0.18,weatherlink.com 1.10,2013-06-27 08:43:00,
2013-06-27 05:03:00,67.8,66.0,29.81,West,280,0.0,-999.0,95,-99.99,,,0.18,weatherlink.com 1.10,2013-06-27 09:03:00,
2013-06-27 05:14:00,67.9,67.0,29.81,West,280,0.0,-999.0,95,-99.99,,,0.18,weatherlink.com 1.10,2013-06-27 09:14:00,
2013-06-27 05:29:00,67.9,67.0,29.82,West,280,0.0,-999.0,95,-99.99,,,0.18,weatherlink.com 1.10,2013-06-27 09:29:00,
2013-06-27 05:44:00,67.9,67.0,29.81,West,280,0.0,-999.0,96,-99.99,,,0.18,weatherlink.com 1.10,2013-06-27 09:44:00,
2013-06-27 06:03:00,67.9,67.0,29.82,West,280,0.0,-999.0,95,-99.99,,,0.18,weatherlink.com 1.10,2013-06-27 10:03:00,
2013-06-27 06:14:00,68.0,67.0,29.81,West,280,0.0,-999.0,96,-99.99,,,0.18,weatherlink.com 1.10,2013-06-27 10:14:00,
2013-06-27 06:29:00,68.1,67.0,29.81,West,280,0.0,-999.0,96,-99.99,,,0.18,weatherlink.com 1.10,2013-06-27 10:29:00,
2013-06-27 06:44:00,68.2,67.0,29.81,West,280,0.0,-999.0,96,-99.99,,,0.19,weatherlink.com 1.10,2013-06-27 10:44:00,
2013-06-27 07:03:00,68.2,67.0,29.81,West,280,0.0,-999.0,96,-99.99,,,0.19,weatherlink.com 1.10,2013-06-27 11:03:00,
2013-06-27 07:14:00,68.4,67.0,29.82,West,280,0.0,-999.0,96,-99.99,,,0.19,weatherlink.com 1.10,2013-06-27 11:14:00,
2013-06-27 07:29:00,68.6,68.0,29.82,West,280,0.0,-999.0,96,-99.99,,,0.19,weatherlink.com 1.10,2013-06-27 11:29:00,
2013-06-27 07:44:00,68.8,68.0,29.81,West,280,0.0,-999.0,96,-99.99,,,0.19,weatherlink.com 1.10,2013-06-27 11:44:00,
2013-06-27 08:03:00,68.8,68.0,29.81,West,280,2.0,-999.0,96,-99.99,,,0.19,weatherlink.com 1.10,2013-06-27 12:03:00,
2013-06-27 08:14:00,69.4,68.0,29.82,West,280,2.0,-999.0,96,-99.99,,,0.19,weatherlink.com 1.10,2013-06-27 12:14:00,
2013-06-27 08:29:00,69.7,69.0,29.82,West,280,0.0,-999.0,96,-99.99,,,0.19,weatherlink.com 1.10,2013-06-27 12:29:00,
2013-06-27 08:44:00,70.1,69.0,29.82,West,280,0.0,-999.0,96,-99.99,,,0.19,weatherlink.com 1.10,2013-06-27 12:44:00,
2013-06-27 09:03:00,70.2,69.0,29.82,West,280,0.0,-999.0,96,-99.99,,,0.19,weatherlink.com 1.10,2013-06-27 13:03:00,
2013-06-27 09:14:00,70.8,70.0,29.83,West,279,0.0,-999.0,96,-99.99,,,0.19,weatherlink.com 1.10,2013-06-27 13:14:00,
2013-06-27 09:29:00,71.1,70.0,29.83,West,279,4.0,-999.0,95,-99.99,,,0.19,weatherlink.com 1.10,2013-06-27 13:29:00,
2013-06-27 09:44:00,71.4,70.0,29.83,West,277,0.0,-999.0,95,-99.99,,,0.19,weatherlink.com 1.10,2013-06-27 13:44:00,
2013-06-27 10:03:00,71.6,70.0,29.83,West,277,0.0,-999.0,95,-99.99,,,0.19,weatherlink.com 1.10,2013-06-27 14:03:00,
2013-06-27 10:14:00,72.3,71.0,29.83,West,270,2.0,-999.0,94,-99.99,,,0.19,weatherlink.com 1.10,2013-06-27 14:14:00,
2013-06-27 10:29:00,72.5,71.0,29.83,WNW,282,5.0,-999.0,94,-99.99,,,0.19,weatherlink.com 1.10,2013-06-27 14:29:00,
2013-06-27 10:44:00,72.8,71.0,29.83,West,275,4.0,-999.0,93,-99.99,,,0.19,weatherlink.com 1.10,2013-06-27 14:44:00,
2013-06-27 11:03:00,73.0,71.0,29.83,West,275,4.0,-999.0,94,-99.99,,,0.19,weatherlink.com 1.10,2013-06-27 15:03:00,
2013-06-27 11:14:00,74.1,72.0,29.83,WSW,250,5.0,-999.0,93,-99.99,,,0.19,weatherlink.com 1.10,2013-06-27 15:14:00,
2013-06-27 11:29:00,74.9,73.0,29.83,West,264,3.0,-999.0,93,-99.99,,,0.19,weatherlink.com 1.10,2013-06-27 15:29:00,
2013-06-27 11:44:00,76.2,73.0,29.82,WNW,288,7.0,-999.0,89,-99.99,,,0.19,weatherlink.com 1.10,2013-06-27 15:44:00,
2013-06-27 12:03:00,76.9,74.0,29.82,West,273,6.0,-999.0,89,-99.99,,,0.19,weatherlink.com 1.10,2013-06-27 16:03:00,
2013-06-27 12:14:00,78.9,73.0,29.82,WNW,288,2.0,-999.0,83,-99.99,,,0.19,weatherlink.com 1.10,2013-06-27 16:14:00,
2013-06-27 12:29:00,79.8,74.0,29.82,WNW,284,5.0,-999.0,83,-99.99,,,0.19,weatherlink.com 1.10,2013-06-27 16:29:00,
2013-06-27 12:44:00,80.2,74.0,29.82,NW,319,11.0,-999.0,80,-99.99,,,0.19,weatherlink.com 1.10,2013-06-27 16:44:00,
2013-06-27 13:03:00,80.4,74.0,29.82,NNW,333,8.0,-999.0,81,-99.99,,,0.19,weatherlink.com 1.10,2013-06-27 17:03:00,
2013-06-27 13:14:00,80.3,74.0,29.82,WNW,286,2.0,-999.0,80,-99.99,,,0.19,weatherlink.com 1.10,2013-06-27 17:14:00,
2013-06-27 13:29:00,80.7,74.0,29.82,West,276,5.0,-999.0,80,-99.99,,,0.19,weatherlink.com 1.10,2013-06-27 17:29:00,
2013-06-27 13:44:00,81.4,74.0,29.82,WNW,283,4.0,-999.0,78,-99.99,,,0.19,weatherlink.com 1.10,2013-06-27 17:44:00,
2013-06-27 14:03:00,81.2,74.0,29.82,West,259,3.0,-999.0,78,-99.99,,,0.19,weatherlink.com 1.10,2013-06-27 18:03:00,
2013-06-27 14:14:00,80.8,74.0,29.81,West,281,6.0,-999.0,79,-99.99,,,0.19,weatherlink.com 1.10,2013-06-27 18:14:00,
2013-06-27 14:29:00,81.5,73.0,29.81,West,280,1.0,-999.0,76,-99.99,,,0.19,weatherlink.com 1.10,2013-06-27 18:29:00,
2013-06-27 14:44:00,81.9,74.0,29.81,West,277,2.0,-999.0,76,-99.99,,,0.19,weatherlink.com 1.10,2013-06-27 18:44:00,
2013-06-27 15:03:00,82.0,74.0,29.81,West,267,3.0,-999.0,76,-99.99,,,0.19,weatherlink.com 1.10,2013-06-27 19:03:00,
2013-06-27 15:14:00,82.7,74.0,29.80,West,264,0.0,-999.0,76,-99.99,,,0.19,weatherlink.com 1.10,2013-06-27 19:14:00,
2013-06-27 15:29:00,82.7,74.0,29.81,WNW,291,6.0,-999.0,76,-99.99,,,0.19,weatherlink.com 1.10,2013-06-27 19:29:00,
2013-06-27 15:44:00,84.6,76.0,29.81,WNW,289,2.0,-999.0,76,-99.99,,,0.19,weatherlink.com 1.10,2013-06-27 19:44:00,
2013-06-27 16:03:00,84.7,75.0,29.80,West,267,4.0,-999.0,72,-99.99,,,0.19,weatherlink.com 1.10,2013-06-27 20:03:00,
2013-06-27 16:14:00,82.8,75.0,29.80,NW,305,6.0,-999.0,77,-99.99,,,0.19,weatherlink.com 1.10,2013-06-27 20:14:00,
2013-06-27 16:29:00,82.6,76.0,29.80,WNW,297,7.0,-999.0,79,-99.99,,,0.20,weatherlink.com 1.10,2013-06-27 20:29:00,
2013-06-27 16:44:00,79.9,75.0,29.80,NW,317,0.0,-999.0,85,-99.99,,,0.22,weatherlink.com 1.10,2013-06-27 20:44:00,
2013-06-27 17:15:00,76.3,74.0,29.79,West,263,0.0,-999.0,93,-99.99,,,0.49,weatherlink.com 1.10,2013-06-27 21:15:00,
2013-06-27 17:30:00,77.6,76.0,29.78,West,263,0.0,-999.0,93,-99.99,,,0.49,weatherlink.com 1.10,2013-06-27 21:30:00,
2013-06-27 18:03:00,80.5,76.0,29.79,West,278,1.0,-999.0,86,-99.99,,,0.49,weatherlink.com 1.10,2013-06-27 22:03:00,
2013-06-27 18:30:00,81.8,77.0,29.78,WSW,240,1.0,-999.0,84,-99.99,,,0.49,weatherlink.com 1.10,2013-06-27 22:30:00,
2013-06-27 18:45:00,82.6,77.0,29.78,West,274,1.0,-999.0,83,-99.99,,,0.49,weatherlink.com 1.10,2013-06-27 22:45:00,
2013-06-27 19:03:00,82.6,76.0,29.78,WSW,254,4.0,-999.0,81,-99.99,,,0.49,weatherlink.com 1.10,2013-06-27 23:03:00,
2013-06-27 19:14:00,83.3,77.0,29.78,West,279,2.0,-999.0,80,-99.99,,,0.49,weatherlink.com 1.10,2013-06-27 23:14:00,
2013-06-27 19:30:00,83.2,76.0,29.78,West,281,3.0,-999.0,78,-99.99,,,0.49,weatherlink.com 1.10,2013-06-27 23:30:00,
2013-06-27 19:45:00,82.9,76.0,29.78,West,259,3.0,-999.0,79,-99.99,,,0.49,weatherlink.com 1.10,2013-06-27 23:45:00,
2013-06-27 20:04:00,82.7,76.0,29.78,West,259,6.0,-999.0,79,-99.99,,,0.49,weatherlink.com 1.10,2013-06-28 00:04:00,
2013-06-27 20:14:00,81.0,75.0,29.77,West,262,6.0,-999.0,82,-99.99,,,0.49,weatherlink.com 1.10,2013-06-28 00:14:00,
2013-06-27 20:44:00,79.9,75.0,29.78,West,263,1.0,-999.0,84,-99.99,,,0.49,weatherlink.com 1.10,2013-06-28 00:44:00,
2013-06-27 21:03:00,79.4,74.0,29.78,West,263,2.0,-999.0,84,-99.99,,,0.49,weatherlink.com 1.10,2013-06-28 01:03:00,
2013-06-27 21:14:00,77.9,73.0,29.78,West,262,2.0,-999.0,84,-99.99,,,0.49,weatherlink.com 1.10,2013-06-28 01:14:00,
2013-06-27 21:29:00,77.3,72.0,29.79,West,262,0.0,-999.0,84,-99.99,,,0.49,weatherlink.com 1.10,2013-06-28 01:29:00,
2013-06-27 22:03:00,76.4,72.0,29.79,West,262,2.0,-999.0,85,-99.99,,,0.49,weatherlink.com 1.10,2013-06-28 02:03:00,
2013-06-27 22:14:00,75.5,71.0,29.78,West,262,0.0,-999.0,86,-99.99,,,0.49,weatherlink.com 1.10,2013-06-28 02:14:00,
2013-06-27 22:44:00,74.2,71.0,29.78,West,262,0.0,-999.0,89,-99.99,,,0.49,weatherlink.com 1.10,2013-06-28 02:44:00,
2013-06-27 23:03:00,74.0,71.0,29.78,West,262,0.0,-999.0,89,-99.99,,,0.49,weatherlink.com 1.10,2013-06-28 03:03:00,
2013-06-27 23:14:00,73.6,71.0,29.78,West,262,0.0,-999.0,90,-99.99,,,0.49,weatherlink.com 1.10,2013-06-28 03:14:00,
2013-06-27 23:29:00,74.0,70.0,29.79,WSW,255,0.0,-999.0,88,-99.99,,,0.49,weatherlink.com 1.10,2013-06-28 03:29:00,
2013-06-27 23:44:00,73.9,70.0,29.78,WSW,255,0.0,-999.0,88,-99.99,,,0.49,weatherlink.com 1.10,2013-06-28 03:44:00,